Regional Weather Roundup
Issued by NWS Lake Charles, LA

Home | Current Version | Previous Version | Text Only | Print | Product List | Glossary On
Versions: 1 2 3 4 5 6 7 8 9 10 11 12 13 14 15 16 17 18 19 20 21 22 23 24 25 26
000
ASUS44 KLCH 241710
RWRLCH
RWRLCH
REGIONAL WEATHER ROUNDUP
NATIONAL WEATHER SERVICE LAKE CHARLES LA
1200 PM CDT THU APR 24 2014

Note: "fair" indicates few or no clouds below 12,000 feet with no
significant weather and/or obstructions to visibility.


ACROSS SOUTHEAST TEXAS

CITY           SKY/WX    TMP DP  RH WIND       PRES   REMARKS
BEAUMONT       MOSUNNY   79  65  62 S17       29.91F
BEAUMONT CITY    N/A     79  66  63 S15G22    29.89F
ORANGE         MOSUNNY   77  66  68 S15       29.94F
JASPER         PTSUNNY   77  65  68 S13       29.91F
$$

ACROSS CENTRAL LOUISIANA

CITY           SKY/WX    TMP DP  RH WIND       PRES   REMARKS
LEESVILLE      PTSUNNY   77  64  64 S12G18    29.90F
FULLERTON      PTSUNNY   80  65  59 VRB5      29.88F
ALEXANDRIA INT PTSUNNY   80  58  46 S10G22    29.89F
ESLER FIELD    PTSUNNY   78  65  63 S9        29.91F
DERIDDER       PTSUNNY   78  63  60 S14       29.93S
OAKDALE        PTSUNNY   78  66  68 SW12      29.92S
OPELOUSAS        N/A     78  65  64 S6        29.93S
$$

ACROSS SOUTHWEST AND SOUTH CENTRAL LOUISIANA

CITY           SKY/WX    TMP DP  RH WIND       PRES   REMARKS
SULPHUR        PTSUNNY   80  64  58 S15G22    29.94S
LAKE CHARLES   CLOUDY    78  61  55 S9G18     29.93S
CHENNAULT INT  NOT AVBL
CAMERON PHI    PTSUNNY   75  68  78 S14       29.95S
DEQUINCY         N/A     78  64  62 S14G23    29.91F
JENNINGS       CLOUDY    78  65  65 S16       29.93F
LAFAYETTE      PTSUNNY   78  65  63 S13       29.94F
NEW IBERIA     MOSUNNY   81  66  60 S15       29.94F
ABBEVILLE      PTSUNNY   85  66  54 SE13      29.95S
PATTERSON      MOSUNNY   77  68  73 S14       29.99F
SALT POINT       N/A     78  70  76 SE8       29.95F
$$

SELECTED SITES ACROSS THE REGION

CITY           SKY/WX    TMP DP  RH WIND       PRES   REMARKS
HOUSTON BUSH   CLOUDY    78  65  63 VRB7      29.88S
HOUSTON HOBBY  CLOUDY    76  66  71 S5        29.89R
GALVESTON      PTSUNNY   74  69  85 S26G33    29.85F
COLLEGE STAT   CLOUDY    77  64  64 S14       29.87F
CONROE         PTSUNNY   76  65  68 S10       29.89R
HUNTSVILLE     CLOUDY    78  63  59 SW8G16    29.89R
LUFKIN         TSTM      76  65  68 S8        29.87R
SHREVEPORT     CLOUDY    76  63  64 S15       29.86F
MONROE         MOSUNNY   77  64  64 S10       29.90F
NATCHEZ MS     MOSUNNY   79  63  57 S12G18    29.93F
BATON ROUGE    PTSUNNY   80  63  55 S12       29.95F
N.O. INTL ARPT MOSUNNY   80  66  62 S13       29.98F
SLIDELL        MOSUNNY   78  61  55 S10       29.98F
$$

MARINE REPORTS

STATION/POSITION TIME  TEMP    WIND        PRES    VSBY  WAVE
                       AIR SEA DIR/SP/G                  HT/PER
                 (UTC) (F)     (DEG/KT/KT) (MB)    (MI)  (FT/S)
BUOY 30 S HIGH I 1700   71 70  160/ 14/ 16 1012.8F         3/ 5
SEA RIM ST PARK  1700   72     160/ 13/ 16 1013.7F
PORT ARTHUR      1700      73  160/  8/ 15 1013.5S
SABINE PASS N    1700   73 72  190/ 12/ 17 1013.4S
TEXAS POINT      1700   71 72  160/ 13/ 14 1013.8S
CALCASIEU PASS   1700   73 73  190/ 13/ 17 1015.0S
LK CHARLES BEACH 1700   77 72              1014.1F
MARSH ISLAND     1600   73     170/ 10/ 12   N/A
FRESH WATER LOCK 1700   73 74  150/ 14/ 17 1014.3R
AMERADA PASS     1700   74 65  170/  5/  8 1014.8F
$$



USA.gov is the U.S. government's official web portal to all federal, state and local government web resources and services.